2004/                     040515 J87  0.2-  0.7-    040601 349  0.2-  0.1+  

040423 349 (2.8-  0.3+)   040515 J87  0.4-  0.1-    040601 349  0.3-  0.2+  

040423 349  0.5-  0.1-    040515 213  0.2+  0.5-    040601 349  0.5-  0.3-  

040423 349  2.0-  0.1+    040515 213  0.1+  0.5-    040602 A32  0.6+  1.9+  

040423 349 (2.8-  1.0+)   040515 213  0.1+  0.3-    040603 349  0.5-  0.1-  

040423 349  2.0-  0.7+    040516 J76  0.8+  0.4-    040603 349  0.3-  0.0   

040424 204  1.0+  0.3-    040516 A03  0.1+  0.4-    040603 349  0.1-  0.1-  

040424 204  1.5+  0.0     040516 A03  0.3+  0.3-    040603 349  0.3-  0.1-  

040424 204  1.8+  0.8-    040516 A03  0.6+  0.2-    040603 355  0.4-  0.2-  

040424 213  0.3-  0.2-    040516 J76  0.2+  0.4-    040603 355  0.9-  0.2-  

040424 213 (3.0-  0.4+)   040516 J76  0.2+  0.5-    040603 355  1.2-  0.1-  

040424 349  0.1-  0.2-    040517 945  0.0   1.9+    040604 349  0.2-  0.4-  

040424 349  0.1+  0.2+    040517 945  0.1+  1.8+    040604 349  0.2-  0.4-  

040424 349  0.3+  0.0     040517 945  0.2+  1.9+    040604 349  0.2-  0.5-  

040424 349  0.3+  0.0     040517 945  0.2+  1.9+    040604 349  0.2-  0.0   

040424 D70  0.4+  0.9+    040517 945  0.4+  1.9+    040606 170 (2.7-  1.5+) 

040424 D70 (2.1+  2.7+)   040518 557  0.2+  0.4-    040607 J93  0.6+  0.3+  

040424 D70  0.3+  1.1-    040518 557  0.2+  0.5-    040607 J93  1.3+  1.0+  

040425 204 (0.5-  2.7+)   040518 557  0.2+  0.5-    040607 J93  0.7+  0.9+  

040425 204  0.7+  0.1-    040518 138  0.1-  0.3-    040612 A32  0.6-  0.9+  

040425 204  0.4+  0.6-    040518 557  0.3+  0.6-    040613 213  1.8-  0.4-  

040425 204  0.2+  0.6-    040518 557  0.2+  0.5-    040613 349  0.1-  0.1+  

040425 J76 (3.2-  1.4+)   040518 557  0.0   0.4-    040613 349  0.2-  0.2+  

040425 J76 (2.8-  0.8+)   040518 138  1.0-  0.0     040613 349  0.2-  0.1-  

040425 J76 (0.3-  2.2+)   040518 138  0.4-  0.1-    040613 D74  0.6-  0.8+  

040425 349  0.3-  0.0     040520 945  0.8+  1.1+    040613 D74 (0.3-  7.6+) 

040425 349  0.5-  0.3+    040520 945  0.7+  1.1+    040613 A54  0.6+  0.5+  

040425 349  0.3-  0.5+    040520 945  0.8+  0.9+    040613 A54 (2.2-  2.1+) 

040425 349  0.3-  0.1-    040520 945  0.6+  1.0+    040614 349  0.3-  0.3-  

040428 235  0.7+  1.2-    040520 945  0.4+  1.1+    040614 349  0.3-  0.4-  

040428 355  0.1+  0.2+    040523 J95  0.9-  0.9+    040614 349  0.6-  0.2-  

040428 355  0.2+  0.6+    040523 J95  0.4-  0.3-    040616 D83  0.1+  0.1-  

040428 355  0.0   0.3+    040523 J95  0.8-  0.4-    040616 D83  0.6-  0.3+  

040428 349  0.3-  0.2+    040523 D74  0.8+  0.2+    040616 D83  0.0   0.4-  

040428 340  0.0   0.0     040523 D74  1.3+  0.0     040617 J93 (0.1-  3.6-) 

040428 349  0.3-  0.1-    040524 349  0.0   0.4-    040617 J93 (2.6-  0.6-) 

040428 349  0.6-  0.0     040524 349  0.2-  0.5-    040617 J93  0.4-  1.2+  

040428 D70  0.8-  0.1+    040524 349  0.3-  0.3-    040618 461  0.1+  0.1+  

040428 349  0.6-  0.4+    040524 372  1.0+  0.1+    040618 461  0.4+  0.0   

040428 340  0.8+  0.3+    040525 349  0.5-  0.6-    040618 461  0.2+  0.0   

040428 340  0.8+  0.4-    040525 349  0.0   0.0     040622 461  0.2-  0.4+  

040428 D70  0.2-  0.8-    040525 349  0.2-  0.2-    040622 461  0.4+  0.1+  

040428 D70  0.0   0.5-    040525 379  0.8+  0.7+    040622 461  0.4-  0.2+  

040428 D70  0.1-  0.6+    040525 379  0.9+  0.0     040622 461  0.2+  0.0   

040429 355  0.6-  0.1+    040525 360  0.4+  0.4-    040622 461  0.2-  0.0   

040429 355  0.3+  0.5+    040525 360  0.5+  0.5-    040624 704  0.1-  0.7-  

040429 355  0.4-  1.0+    040525 360  0.2+  0.6-    040624 704  0.2+  0.8-  

040429 349  0.4-  0.1+    040528 349  0.2-  0.9-    040624 704  0.1-  0.3-  

040429 349  0.4-  0.3+    040528 349  0.5-  0.7-    040624 704  0.4-  0.0   

040429 349  0.6-  0.3+    040528 349  0.6-  0.7-    040626 A18  0.1-  0.1-  

040429 349  0.5-  0.3+    040528 349  0.2-  0.4-    040626 213  0.5+  1.5-  

040510 349  0.3+  0.3-    040529 048  0.3-  0.9-    040626 213  1.4+  1.9-  

040510 349  0.1+  0.1-    040529 048  0.0   0.7-    040626 A46  0.3+  0.7+  

040510 349  0.2+  0.3-    040529 A32  0.2-  0.1-    040626 A46  0.0   1.1+  

040510 349  0.3+  0.3-    040529 048  0.1-  0.4-    040626 A46 (0.8-  2.2+) 

040511 379  0.1+  0.0     040529 048  0.3-  0.1+    040626 A46 (0.5-  2.2+) 

040511 379  0.7+  0.5+    040529 048  0.6-  0.1+    040626 A46  0.5-  1.6+  

040511 379  0.1-  0.8+    040530 048  0.7-  0.2-    040626 A46 (1.4-  2.6+) 

040512 557  0.3+  0.8-    040530 048  0.3-  0.0     040627 461  0.5+  0.2-  

040512 557  0.2+  0.5-    040530 048  0.3-  0.1-    040627 461  0.6+  0.0   

040512 557  0.5+  0.7-    040530 048  0.7-  0.1-    040627 461  0.4+  0.2+  

040512 557  0.5+  0.7-    040530 048  0.6-  0.6+    040627 461  0.3+  0.3-  

040512 557  0.3+  0.6-    040530 J76  0.3-  0.5+    040627 461  0.1+  0.1-  

040512 557  0.2+  0.5-    040530 J76  0.1-  0.5+    040627 461  0.2+  0.1+  

040514 349  0.2-  0.4-    040530 J76  0.5-  0.6-    040629 A32 (0.6+  2.1-) 

040514 349  0.3-  0.1-    040531 945  0.9-  0.3-    040629 A32  0.4+  0.5-  

040514 349  0.1-  0.1-    040531 945  0.6-  0.1-    040630 360  1.0+  0.2+  

040514 349  0.3-  0.1-    040531 945  0.2+  0.0     040630 360  0.3+  0.3+  

040514 372  0.6+  0.3+    040531 945  0.7+  0.2+    040630 360  0.2+  0.2+  

040515 J87  0.1-  0.1-    040601 349  0.5-  0.3-                            



NAKANO

         **** Don't distribute anyone except personal use only ****

                (C) Copyright 2004 OAA/ComputingSection

write mail from CFAD0::NAKANO on 2004-07-03 22:20:30(JST).

 



    C/2004 F4 (Bradfield)                                                 

T 2004 Apr. 17.09008 TT                                 Nakano

q   0.1682733            (2000.0)            P               Q

z  +0.0041918      Peri.  332.78720     -0.79295179     -0.06299549

 +/-0.0000900      Node   222.77798     -0.25281456     -0.87095523

e   0.9992946      Incl.   63.16468     -0.55435751     +0.48730745

P 3685 years

From 104 observations 2004 Apr. 23-2004 May  25.



NAKANO

         **** Don't distribute anyone except personal use only ****

                (C) Copyright 2004 OAA/ComputingSection

write mail from CFAD0::NAKANO on 2004-06-02 06:08:27(JST).

 



◎C/2004 F4の軌道と予報位置です



 上尾の門田健一氏は,5月11日朝にこの彗星の観測に成功しました.氏の

CCD全光度は,8.6等でした.なお,まだ,不確かですが,彗星の軌道長半径

は,a= 230 AUほどで,彗星は,周期が3500年ほどの長円軌道を動いている

ようです.



    C/2004 F4 (Bradfield)                                                 

T 2004 Apr. 17.08996 TT                                 Nakano

q   0.1682825            (2000.0)            P               Q

z  +0.0043089      Peri.  332.78782     -0.79296171     -0.06299799

 +/-0.0003286      Node   222.77686     -0.25280949     -0.87095188

e   0.9992749      Incl.   63.16460     -0.55434563     +0.48731311

From 47 observations 2004 Apr. 23-May 10.



 27h JST R.A.(2000) Decl.    Delta   r      Mot./PA   Elong. Mag.   PA/Tail  Ast

ronomical

           h  m       。  ,                    ,     。    。    m1      。 。       

twilight

May  10  01 03.09  +41 06.7  1.311  0.773   36.6/ 14   36.0   8.5  301/6.10  +18

.3  232.0

     11  01 03.89  +41 42.1  1.332  0.797   35.3/ 15   36.6   8.6  300/5.90  +18

.9  231.7

     12  01 04.72  +42 16.2  1.352  0.821   34.2/ 16   37.2   8.8  300/5.72  +19

.5  231.4

     13  01 05.56  +42 49.1  1.372  0.845   33.1/ 16   37.8   9.0  299/5.56  +20

.0  231.1

     14  01 06.42  +43 20.9  1.392  0.868   32.2/ 17   38.4   9.1  298/5.40  +20

.6  230.8

     15  01 07.29  +43 51.6  1.412  0.892   31.3/ 18   39.0   9.3  298/5.25  +21

.2  230.5

     16  01 08.17  +44 21.4  1.430  0.915   30.4/ 18   39.5   9.4  297/5.11  +21

.7  230.2

     17  01 09.06  +44 50.4  1.449  0.938   29.7/ 18   40.1   9.5  297/4.98  +22

.2  229.9

     18  01 09.94  +45 18.5  1.467  0.960   28.9/ 19   40.6   9.7  296/4.86  +22

.8  229.6

     19  01 10.83  +45 45.9  1.485  0.983   28.2/ 19   41.1   9.8  296/4.74  +23

.3  229.4

     20  01 11.71  +46 12.7  1.503  1.005   27.6/ 19   41.7   9.9  295/4.63  +23

.8  229.1

     21  01 12.59  +46 38.7  1.520  1.027   27.0/ 19   42.2  10.0  295/4.53  +24

.3  228.9

     22  01 13.45  +47 04.2  1.537  1.049   26.4/ 19   42.7  10.1  294/4.44  +24

.8  228.6

     23  01 14.31  +47 29.1  1.554  1.070   25.9/ 19   43.2  10.3  293/4.34  +25

.3  228.4

     24  01 15.16  +47 53.5  1.570  1.092   25.3/ 19   43.7  10.4  293/4.26  +25

.8  228.2

     25  01 15.99  +48 17.5  1.586  1.113   24.8/ 19   44.2  10.5  292/4.17  +26

.4  227.9

     26  01 16.81  +48 40.9  1.601  1.134   24.4/ 19   44.8  10.6  292/4.10  +26

.9  227.7

     27  01 17.62  +49 04.0  1.617  1.155   23.9/ 19   45.3  10.7  291/4.02  +27

.4  227.5

     28  01 18.41  +49 26.6  1.632  1.176   23.5/ 19   45.8  10.8  290/3.95  +27

.9  227.3

     29  01 19.18  +49 48.8  1.646  1.197   23.1/ 18   46.3  10.9  290/3.88  +28

.4  227.1

     30  01 19.93  +50 10.7  1.661  1.217   22.7/ 18   46.8  11.0  289/3.82  +28

.9  226.9

     31  01 20.67  +50 32.3  1.675  1.238   22.3/ 18   47.3  11.0  288/3.76  +29

.4  226.6

June  1  01 21.38  +50 53.6  1.689  1.258   21.9/ 17   47.8  11.1  288/3.70  +29

.9  226.4

      2  01 22.07  +51 14.5  1.703  1.278   21.6/ 17   48.4  11.2  287/3.64  +30

.4  226.2

      3  01 22.74  +51 35.2  1.716  1.298   21.3/ 16   48.9  11.3  287/3.59  +30

.9  226.0

      4  01 23.39  +51 55.6  1.729  1.318   20.9/ 16   49.4  11.4  286/3.54  +31

.5  225.8

      5  01 24.01  +52 15.7  1.742  1.337   20.6/ 15   49.9  11.5  285/3.49  +32

.0  225.6

      6  01 24.61  +52 35.6  1.755  1.357   20.4/ 15   50.5  11.5  285/3.44  +32

.5  225.4

      7  01 25.18  +52 55.3  1.767  1.376   20.1/ 14   51.0  11.6  284/3.40  +33

.0  225.2

      8  01 25.72  +53 14.8  1.779  1.396   19.8/ 13   51.5  11.7  283/3.35  +33

.6  224.9

